Miscellaneous Local Product
Issued by NWS Hastings, NE

Home | Current Version | Previous Version | Text Only | Print | Product List | Glossary Off
Versions: 1 2 3 4 5 6 7 8 9 10 11 12 13 14 15 16 17 18 19 20 21 22 23 24 25 26 27 28 29 30 31 32 33 34 35 36 37 38 39 40 41 42 43 44 45 46 47 48 49 50

000
AXUS43 KGID 311902
MISGRI

GID CWA HOURLY WEATHER ROUNDUP
NATIONAL WEATHER SERVICE HASTINGS NE
100 PM CST SAT JAN 31 2015

NOTE: "FAIR" INDICATES FEW OR NO CLOUDS BELOW 12,000 FEET WITH NO
SIGNIFICANT WEATHER AND/OR OBSTRUCTIONS TO VISIBILITY.

...SOUTH CENTRAL NEBRASKA...

CITY           SKY/WX    TMP DP  RH WIND       PRES   REMARKS
GRAND ISLAND   LGT SNOW  33  31  92 S12       29.99F FOG     WCI  24
HASTINGS       LGT SNOW  32  30  92 S10       29.96F FOG     WCI  24
KEARNEY        CLOUDY    34  30  86 SE8       29.94F WCI  27
ORD            CLOUDY    35  31  85 SE6       29.95F WCI  30
YORK           LGT SNOW  32  32 100 S10       30.01F VSB 3/4 WCI  24
AURORA         LGT SNOW  33  33 100 SE12      29.99F WCI  24
LEXINGTON      CLOUDY    34  33  96 SE7       29.93F FOG     WCI  28
HOLDREGE       FOG       32  32  98 SE12      29.93F VSB 1   WCI  23
HEBRON         LGT SNOW  33  32  95 S12       30.03F VSB 1   WCI  24

...NEBRASKA PANHANDLE...

CITY           SKY/WX    TMP DP  RH WIND       PRES   REMARKS
CHADRON        CLOUDY    33  26  75 NE10      29.94F WCI  25
ALLIANCE       SNOW      31  29  92 N9        29.88F VSB 1/4 WCI  23
SCOTTSBLUFF    SNOW      32  31  96 VRB7      29.90F VSB 1/4 WCI  26
SIDNEY         LGT SNOW  33  30  88 N7        29.86F FOG     WCI  27

...WESTERN AND NORTH CENTRAL NEBRASKA...

CITY           SKY/WX    TMP DP  RH WIND       PRES   REMARKS
VALENTINE      FOG       25  23  92 NE16      30.00F VSB 1/4 WCI  12
AINSWORTH      FOG       27  26  97 NE9       30.00R VSB 3/4 WCI  17
ONEILL         CLOUDY    30  29  94 NE9       30.00F WCI  22
BROKEN BOW     LGT SNOW  35  32  88 E7        29.92F FOG     WCI  29
IMPERIAL       CLOUDY    33  32  96 CALM      29.87F FOG
NORTH PLATTE   CLOUDY    35  31  85 E7        29.89F WCI  29
MCCOOK         FOG       36  34  92 E6        29.88F VSB 3/4 WCI  31

...EASTERN NEBRASKA...

CITY           SKY/WX    TMP DP  RH WIND       PRES   REMARKS
NORFOLK        CLOUDY    36  33  89 S13       30.01F WCI  27
SO SIOUX CITY  LGT RAIN  38  36  92 S6        30.07F FOG     WCI  33
TEKAMAH        LGT SNOW  35  33  92 S8        30.09F FOG     WCI  29
COLUMBUS       CLOUDY    36  28  75 S12       30.04F WCI  27
ALBION         CLOUDY    35  31  86 S10       30.00F WCI  27
OMAHA EPPLEY   LGT SNOW  34  33  96 SE10      30.09F FOG     WCI  26
OFFUTT AFB     LGT SNOW  32  32 100 E6        30.08F VSB 1   WCI  26
MILLARD        LGT SNOW  33  32  95 SE5       30.10F WCI  29
LINCOLN        LGT SNOW  33  32  96 SE12      30.06F VSB 3/4 WCI  24
NEBRASKA CITY  LGT SNOW  33  33 100 S13       30.11F WCI  24
BEATRICE       LGT SNOW  33  32  97 SE10      30.06F WCI  25
FALLS CITY     LGT SNOW  33  33 100 SE8       30.13F VSB 1   WCI  26

...NORTHERN KANSAS...

CITY           SKY/WX    TMP DP  RH WIND       PRES   REMARKS
GOODLAND       CLOUDY    39  34  82 N6        29.84F WCI  35
HILL CITY      CLOUDY    37  35  92 S12       29.90F WCI  29
NORTON         CLOUDY    34  32  93 SE6       29.89  FOG     WCI  29
PHILLIPSBURG   CLOUDY    36  36 100 E6        29.94F FOG     WCI  31
SMITH CENTER   LGT SNOW  30  30 100 SE13      29.96F WCI  20
BELOIT         CLOUDY    34  34 100 SE13      29.98F WCI  25
HAYS           CLOUDY    37  28  70 S12       29.93F WCI  30
RUSSELL        RAIN      37  37 100 S8        29.94F FOG     WCI  31
CONCORDIA      LGT SNOW  33  33 100 SE13      30.01F FOG     WCI  24
SALINA         LGT RAIN  39  36  89 S13       30.02F FOG     WCI  31
TOPEKA         LGT RAIN  37  35  92 S6        30.15F FOG     WCI  32



USA.gov is the U.S. government's official web portal to all federal, state and local government web resources and services.